Simultaneous Nadir Overpasses (SNOs) Predictions

Prediction of SNOs between METOP-B and NOAA-19 Satellite Orbit:

Table of predicted SNOs for the next 14.0 days since TLE Epoch: 11/30/2018
Index Date (METOP-B) Time (METOP-B) Lat,Lon (METOP-B) SZA (METOP-B ) Date (NOAA-19) Time (NOAA-19) Lat,Lon (NOAA-19) SZA (NOAA-19 ) Distance(km) Time Diff (sec)
1 12/09/2018 00:05:04 78.84,-168.43 101.92 12/09/2018 00:04:07 78.84,-168.48 101.90 0.98 57
2 12/09/2018 00:55:45 -78.85, -1.07 78.08 12/09/2018 00:55:02 -78.84, -1.16 78.10 2.49 43
3 12/09/2018 01:46:26 78.83, 166.14 101.91 12/09/2018 01:46:08 78.84, 166.02 101.91 2.92 18
4 12/09/2018 02:37:07 -78.84, -26.49 78.09 12/09/2018 02:37:03 -78.84, -26.67 78.10 3.80 4
5 12/09/2018 03:27:48 78.82, 140.72 101.90 12/09/2018 03:28:08 78.81, 140.77 101.89 1.53 20
6 12/09/2018 04:18:29 -78.82, -51.91 78.10 12/09/2018 04:19:03 -78.80, -51.92 78.11 2.26 34
7 12/09/2018 05:09:10 78.81, 115.30 101.89 12/09/2018 05:10:09 78.81, 115.27 101.90 0.70 59




NCC Satellite Simultaneous Nadir Overpasses (SNOs) Prediction Service
